Time,TemperatureF,DewpointF,PressureIn,WindDirection,WindDirectionDegrees,WindSpeedMPH,WindSpeedGustMPH,Humidity,HourlyPrecipIn,Conditions,Clouds,dailyrainin,SolarRadiationWatts/m^2,SoftwareType,DateUTC
2013-09-11 00:00:00,62.9,55.6,29.91,North,6,0.0,0.0,77,0.00,,---,0.01,0.00,VWS V14.01,2013-09-11 07:00:00,
2013-09-11 00:03:00,62.7,55.4,29.90,North,6,0.0,0.0,77,0.00,,---,0.00,0.00,VWS V14.01,2013-09-11 07:03:00,
2013-09-11 00:08:00,62.6,55.3,29.90,North,6,0.0,0.0,77,0.00,,---,0.00,0.00,VWS V14.01,2013-09-11 07:08:00,
2013-09-11 00:13:00,62.4,55.1,29.90,North,6,0.0,0.0,77,0.00,,---,0.00,0.00,VWS V14.01,2013-09-11 07:13:00,
2013-09-11 00:18:00,62.3,55.4,29.90,North,6,0.0,0.0,78,0.00,,---,0.00,0.00,VWS V14.01,2013-09-11 07:18:00,
2013-09-11 00:23:00,62.2,54.9,29.90,North,6,0.0,0.0,77,0.00,,---,0.00,0.00,VWS V14.01,2013-09-11 07:23:00,
2013-09-11 00:28:00,62.1,54.8,29.90,North,6,0.0,0.0,77,0.00,,---,0.00,0.00,VWS V14.01,2013-09-11 07:28:00,
2013-09-11 00:30:00,62.2,54.9,29.90,North,6,0.0,0.0,77,0.00,,---,0.00,0.00,VWS V14.01,2013-09-11 07:30:00,
2013-09-11 00:33:00,62.0,54.7,29.90,North,6,0.0,0.0,77,0.00,,---,0.00,0.00,VWS V14.01,2013-09-11 07:33:00,
2013-09-11 00:38:00,62.0,54.4,29.90,North,6,0.0,0.0,76,0.00,,---,0.00,0.00,VWS V14.01,2013-09-11 07:38:00,
2013-09-11 00:43:00,62.1,54.1,29.90,North,6,0.0,0.0,75,0.00,,---,0.00,0.00,VWS V14.01,2013-09-11 07:43:00,
2013-09-11 00:48:00,62.2,54.2,29.90,North,6,0.0,0.0,75,0.00,,---,0.00,0.00,VWS V14.01,2013-09-11 07:48:00,
2013-09-11 00:53:00,62.4,54.0,29.90,North,6,0.0,0.0,74,0.00,,---,0.00,0.00,VWS V14.01,2013-09-11 07:53:00,
2013-09-11 00:58:00,62.6,54.2,29.89,North,6,0.0,0.0,74,0.00,,---,0.00,0.00,VWS V14.01,2013-09-11 07:58:00,
2013-09-11 01:00:00,62.5,54.1,29.89,North,6,0.0,0.0,74,0.00,,---,0.00,0.00,VWS V14.01,2013-09-11 08:00:00,
2013-09-11 01:03:00,62.7,54.3,29.89,North,6,0.0,0.0,74,0.00,,---,0.00,0.00,VWS V14.01,2013-09-11 08:03:00,
2013-09-11 01:08:00,62.9,54.9,29.89,North,6,0.0,0.0,75,0.00,,---,0.00,0.00,VWS V14.01,2013-09-11 08:08:00,
2013-09-11 01:13:00,62.9,54.9,29.89,North,6,0.0,0.0,75,0.00,,---,0.00,0.00,VWS V14.01,2013-09-11 08:13:00,
2013-09-11 01:18:00,62.9,54.9,29.89,North,6,0.0,0.0,75,0.00,,---,0.00,0.00,VWS V14.01,2013-09-11 08:18:00,
2013-09-11 01:23:00,62.9,54.9,29.89,North,6,0.0,0.0,75,0.00,,---,0.00,0.00,VWS V14.01,2013-09-11 08:23:00,
2013-09-11 01:28:00,63.0,54.6,29.89,North,6,0.0,0.0,74,0.00,,---,0.00,0.00,VWS V14.01,2013-09-11 08:28:00,
2013-09-11 01:30:00,62.9,54.9,29.90,North,6,0.0,0.0,75,0.00,,---,0.00,0.00,VWS V14.01,2013-09-11 08:30:00,
2013-09-11 01:33:00,63.0,54.6,29.89,North,6,0.0,0.0,74,0.00,,---,0.00,0.00,VWS V14.01,2013-09-11 08:33:00,
2013-09-11 01:38:00,63.2,54.4,29.89,North,6,0.0,0.0,73,0.00,,---,0.00,0.00,VWS V14.01,2013-09-11 08:38:00,
2013-09-11 01:43:00,63.5,54.3,29.89,North,6,0.0,0.0,72,0.00,,---,0.00,0.00,VWS V14.01,2013-09-11 08:43:00,
2013-09-11 01:48:00,63.6,54.8,29.89,North,6,0.0,0.0,73,0.00,,---,0.00,0.00,VWS V14.01,2013-09-11 08:48:00,
2013-09-11 01:53:00,63.6,54.8,29.89,North,6,0.0,0.0,73,0.00,,---,0.00,0.00,VWS V14.01,2013-09-11 08:53:00,
2013-09-11 01:58:00,63.5,54.7,29.89,North,6,0.0,0.0,73,0.00,,---,0.00,0.00,VWS V14.01,2013-09-11 08:58:00,
2013-09-11 02:00:00,63.5,54.7,29.89,North,6,0.0,0.0,73,0.00,,---,0.00,0.00,VWS V14.01,2013-09-11 09:00:00,
2013-09-11 02:03:00,63.4,54.6,29.90,North,6,0.0,0.0,73,0.00,,---,0.00,0.00,VWS V14.01,2013-09-11 09:03:00,
2013-09-11 02:08:00,63.4,55.0,29.90,North,6,0.0,0.0,74,0.00,,---,0.00,0.00,VWS V14.01,2013-09-11 09:08:00,
2013-09-11 02:13:00,63.3,54.9,29.90,North,6,0.0,0.0,74,0.00,,---,0.00,0.00,VWS V14.01,2013-09-11 09:13:00,
2013-09-11 02:18:00,63.2,54.8,29.90,North,6,0.0,0.0,74,0.00,,---,0.00,0.00,VWS V14.01,2013-09-11 09:18:00,
2013-09-11 02:23:00,63.0,54.6,29.90,North,6,0.0,0.0,74,0.00,,---,0.00,0.00,VWS V14.01,2013-09-11 09:23:00,
2013-09-11 02:28:00,62.8,54.4,29.90,North,6,0.0,0.0,74,0.00,,---,0.00,0.00,VWS V14.01,2013-09-11 09:28:00,
2013-09-11 02:30:00,62.9,54.5,29.90,North,6,0.0,0.0,74,0.00,,---,0.00,0.00,VWS V14.01,2013-09-11 09:30:00,
2013-09-11 02:33:00,62.5,54.5,29.90,North,6,0.0,0.0,75,0.00,,---,0.00,0.00,VWS V14.01,2013-09-11 09:33:00,
2013-09-11 02:38:00,62.3,54.7,29.90,North,6,0.0,0.0,76,0.00,,---,0.00,0.00,VWS V14.01,2013-09-11 09:38:00,
2013-09-11 02:43:00,62.1,54.5,29.90,North,6,0.0,0.0,76,0.00,,---,0.00,0.00,VWS V14.01,2013-09-11 09:43:00,
2013-09-11 02:48:00,61.9,54.3,29.90,North,6,0.0,0.0,76,0.00,,---,0.00,0.00,VWS V14.01,2013-09-11 09:48:00,
2013-09-11 02:53:00,61.8,54.5,29.90,North,6,0.0,0.0,77,0.00,,---,0.00,0.00,VWS V14.01,2013-09-11 09:53:00,
2013-09-11 02:58:00,61.6,54.3,29.90,North,6,0.0,0.0,77,0.00,,---,0.00,0.00,VWS V14.01,2013-09-11 09:58:00,
2013-09-11 03:00:00,61.7,54.4,29.90,North,6,0.0,0.0,77,0.00,,---,0.00,0.00,VWS V14.01,2013-09-11 10:00:00,
2013-09-11 03:03:00,61.4,54.5,29.90,North,6,0.0,0.0,78,0.00,,---,0.00,0.00,VWS V14.01,2013-09-11 10:03:00,
2013-09-11 03:08:00,61.3,54.4,29.90,North,6,0.0,0.0,78,0.00,,---,0.00,0.00,VWS V14.01,2013-09-11 10:08:00,
2013-09-11 03:13:00,61.1,54.2,29.90,North,6,0.0,0.0,78,0.00,,---,0.00,0.00,VWS V14.01,2013-09-11 10:13:00,
2013-09-11 03:18:00,60.9,54.3,29.90,North,6,0.0,0.0,79,0.00,,---,0.00,0.00,VWS V14.01,2013-09-11 10:18:00,
2013-09-11 03:23:00,60.7,54.5,29.89,North,6,0.0,0.0,80,0.00,,---,0.00,0.00,VWS V14.01,2013-09-11 10:23:00,
2013-09-11 03:28:00,60.5,54.3,29.90,North,6,0.0,0.0,80,0.00,,---,0.00,0.00,VWS V14.01,2013-09-11 10:28:00,
2013-09-11 03:30:00,60.5,54.3,29.90,North,6,0.0,0.0,80,0.00,,---,0.00,0.00,VWS V14.01,2013-09-11 10:30:00,
2013-09-11 03:33:00,60.3,54.1,29.90,North,6,0.0,0.0,80,0.00,,---,0.00,0.00,VWS V14.01,2013-09-11 10:33:00,
2013-09-11 03:38:00,60.1,53.9,29.90,North,6,0.0,0.0,80,0.00,,---,0.00,0.00,VWS V14.01,2013-09-11 10:38:00,
2013-09-11 03:43:00,60.0,54.2,29.90,North,6,0.0,0.0,81,0.00,,---,0.00,0.00,VWS V14.01,2013-09-11 10:43:00,
2013-09-11 03:48:00,59.8,54.0,29.90,North,6,0.0,0.0,81,0.00,,---,0.00,0.00,VWS V14.01,2013-09-11 10:48:00,
2013-09-11 03:53:00,59.7,53.9,29.90,North,6,0.0,0.0,81,0.00,,---,0.00,0.00,VWS V14.01,2013-09-11 10:53:00,
2013-09-11 03:58:00,59.5,54.0,29.90,North,6,0.0,0.0,82,0.00,,---,0.00,0.00,VWS V14.01,2013-09-11 10:58:00,
2013-09-11 04:00:00,59.6,54.1,29.90,North,6,0.0,0.0,82,0.00,,---,0.00,0.00,VWS V14.01,2013-09-11 11:00:00,
2013-09-11 04:03:00,59.4,53.9,29.90,North,6,0.0,0.0,82,0.00,,---,0.00,0.00,VWS V14.01,2013-09-11 11:03:00,
2013-09-11 04:08:00,59.2,53.7,29.90,North,6,0.0,0.0,82,0.00,,---,0.00,0.00,VWS V14.01,2013-09-11 11:08:00,
2013-09-11 04:13:00,59.1,54.0,29.90,North,6,0.0,0.0,83,0.00,,---,0.00,0.00,VWS V14.01,2013-09-11 11:13:00,
2013-09-11 04:18:00,59.0,53.8,29.90,North,6,0.0,0.0,83,0.00,,---,0.00,0.00,VWS V14.01,2013-09-11 11:18:00,
2013-09-11 04:22:00,59.0,53.8,29.90,North,6,0.0,0.0,83,0.00,,---,0.00,0.00,VWS V14.01,2013-09-11 11:22:00,
2013-09-11 04:27:00,59.0,53.8,29.90,North,6,0.0,0.0,83,0.00,,---,0.00,0.00,VWS V14.01,2013-09-11 11:27:00,
2013-09-11 04:30:00,59.0,53.8,29.90,North,6,0.0,0.0,83,0.00,,---,0.00,0.00,VWS V14.01,2013-09-11 11:30:00,
2013-09-11 04:32:00,59.0,53.8,29.90,North,6,0.0,0.0,83,0.00,,---,0.00,0.00,VWS V14.01,2013-09-11 11:32:00,
2013-09-11 04:37:00,59.0,53.8,29.90,North,6,0.0,0.0,83,0.00,,---,0.00,0.00,VWS V14.01,2013-09-11 11:37:00,
2013-09-11 04:42:00,59.0,53.8,29.90,North,6,0.0,0.0,83,0.00,,---,0.00,0.00,VWS V14.01,2013-09-11 11:42:00,
2013-09-11 04:48:00,59.0,53.8,29.90,North,6,0.0,0.0,83,0.00,,---,0.00,0.00,VWS V14.01,2013-09-11 11:48:00,
2013-09-11 04:53:00,58.8,53.7,29.90,North,6,0.0,0.0,83,0.00,,---,0.00,0.00,VWS V14.01,2013-09-11 11:53:00,
2013-09-11 04:58:00,58.6,53.5,29.90,North,6,0.0,0.0,83,0.00,,---,0.00,0.00,VWS V14.01,2013-09-11 11:58:00,
2013-09-11 05:00:00,58.7,53.6,29.90,North,6,0.0,0.0,83,0.00,,---,0.00,0.00,VWS V14.01,2013-09-11 12:00:00,
2013-09-11 05:03:00,58.6,53.8,29.90,North,6,0.0,0.0,84,0.00,,---,0.00,0.00,VWS V14.01,2013-09-11 12:03:00,
2013-09-11 05:08:00,58.5,53.7,29.90,North,6,0.0,0.0,84,0.00,,---,0.00,0.00,VWS V14.01,2013-09-11 12:08:00,
2013-09-11 05:13:00,58.5,53.7,29.90,North,6,0.0,0.0,84,0.00,,---,0.00,0.00,VWS V14.01,2013-09-11 12:13:00,
2013-09-11 05:18:00,58.5,53.7,29.90,North,6,0.0,0.0,84,0.00,,---,0.00,0.00,VWS V14.01,2013-09-11 12:18:00,
2013-09-11 05:23:00,58.5,54.0,29.90,North,6,0.0,0.0,85,0.00,,---,0.00,0.00,VWS V14.01,2013-09-11 12:23:00,
2013-09-11 05:28:00,58.4,53.9,29.90,North,6,0.0,0.0,85,0.00,,---,0.00,0.00,VWS V14.01,2013-09-11 12:28:00,
2013-09-11 05:30:00,58.5,54.0,29.90,North,6,0.0,0.0,85,0.00,,---,0.00,0.00,VWS V14.01,2013-09-11 12:30:00,
2013-09-11 05:33:00,58.4,53.6,29.91,North,6,0.0,0.0,84,0.00,,---,0.00,0.00,VWS V14.01,2013-09-11 12:33:00,
2013-09-11 05:38:00,58.3,53.8,29.91,North,6,0.0,0.0,85,0.00,,---,0.00,0.00,VWS V14.01,2013-09-11 12:38:00,
2013-09-11 05:43:00,58.3,53.8,29.91,North,6,0.0,0.0,85,0.00,,---,0.00,0.00,VWS V14.01,2013-09-11 12:43:00,
2013-09-11 05:48:00,58.3,53.8,29.91,North,6,0.0,0.0,85,0.00,,---,0.00,0.00,VWS V14.01,2013-09-11 12:48:00,
2013-09-11 05:53:00,58.3,53.8,29.91,North,6,0.0,0.0,85,0.00,,---,0.00,0.00,VWS V14.01,2013-09-11 12:53:00,
2013-09-11 05:58:00,58.2,53.7,29.91,North,6,0.0,0.0,85,0.00,,---,0.00,0.00,VWS V14.01,2013-09-11 12:58:00,
2013-09-11 06:00:00,58.2,53.7,29.91,North,6,0.0,0.0,85,0.00,,---,0.00,0.00,VWS V14.01,2013-09-11 13:00:00,
2013-09-11 06:03:00,58.2,53.7,29.91,North,6,0.0,0.0,85,0.00,,---,0.00,0.00,VWS V14.01,2013-09-11 13:03:00,
2013-09-11 06:08:00,58.1,53.9,29.92,North,6,0.0,0.0,86,0.00,,---,0.00,0.00,VWS V14.01,2013-09-11 13:08:00,
2013-09-11 06:13:00,58.1,53.9,29.91,North,6,0.0,0.0,86,0.00,,---,0.00,0.00,VWS V14.01,2013-09-11 13:13:00,
2013-09-11 06:18:00,58.1,53.9,29.92,North,6,0.0,0.0,86,0.00,,---,0.00,0.00,VWS V14.01,2013-09-11 13:18:00,
2013-09-11 06:23:00,58.0,53.8,29.92,North,6,0.0,0.0,86,0.00,,---,0.00,0.00,VWS V14.01,2013-09-11 13:23:00,
2013-09-11 06:28:00,58.0,53.8,29.92,North,6,0.0,0.0,86,0.00,,---,0.00,0.00,VWS V14.01,2013-09-11 13:28:00,
2013-09-11 06:30:00,58.0,53.8,29.92,North,6,0.0,0.0,86,0.00,,---,0.00,0.00,VWS V14.01,2013-09-11 13:30:00,
2013-09-11 06:33:00,58.1,54.3,29.92,North,6,0.0,0.0,87,0.00,,---,0.00,0.00,VWS V14.01,2013-09-11 13:33:00,
2013-09-11 06:38:00,58.3,54.5,29.92,North,6,0.0,0.0,87,0.00,,---,0.00,0.00,VWS V14.01,2013-09-11 13:38:00,
2013-09-11 06:43:00,58.6,55.1,29.92,North,6,0.0,0.0,88,0.00,,---,0.00,0.00,VWS V14.01,2013-09-11 13:43:00,
2013-09-11 06:48:00,58.8,55.3,29.92,North,6,0.0,0.0,88,0.00,,---,0.00,0.00,VWS V14.01,2013-09-11 13:48:00,
2013-09-11 06:53:00,59.0,55.5,29.92,North,6,0.0,0.0,88,0.00,,---,0.00,0.00,VWS V14.01,2013-09-11 13:53:00,
2013-09-11 06:58:00,59.0,55.1,29.92,North,6,0.0,0.0,87,0.00,,---,0.00,5.00,VWS V14.01,2013-09-11 13:58:00,
2013-09-11 07:00:00,59.0,55.1,29.92,North,6,0.0,0.0,87,0.00,,---,0.00,0.00,VWS V14.01,2013-09-11 14:00:00,
2013-09-11 07:03:00,59.0,55.1,29.92,North,6,0.0,0.0,87,0.00,,---,0.00,5.00,VWS V14.01,2013-09-11 14:03:00,
2013-09-11 07:07:00,59.0,55.1,29.92,North,6,0.0,0.0,87,0.00,,---,0.00,7.00,VWS V14.01,2013-09-11 14:07:00,
2013-09-11 07:13:00,59.0,55.1,29.92,North,6,0.0,0.0,87,0.00,,---,0.00,9.00,VWS V14.01,2013-09-11 14:13:00,
2013-09-11 07:18:00,59.0,55.1,29.92,North,6,0.0,0.0,87,0.00,,---,0.00,12.00,VWS V14.01,2013-09-11 14:18:00,
2013-09-11 07:23:00,59.2,55.3,29.92,North,6,0.0,0.0,87,0.00,,---,0.00,19.00,VWS V14.01,2013-09-11 14:23:00,
2013-09-11 07:28:00,59.4,55.8,29.92,North,6,0.0,0.0,88,0.00,,---,0.00,26.00,VWS V14.01,2013-09-11 14:28:00,
2013-09-11 07:30:00,59.3,55.8,29.92,North,6,0.0,0.0,88,0.00,,---,0.00,26.00,VWS V14.01,2013-09-11 14:30:00,
2013-09-11 07:33:00,59.5,56.0,29.92,North,6,0.0,0.0,88,0.00,,---,0.00,26.00,VWS V14.01,2013-09-11 14:33:00,
2013-09-11 07:38:00,59.7,56.2,29.92,North,6,0.0,0.0,88,0.00,,---,0.00,25.00,VWS V14.01,2013-09-11 14:38:00,
2013-09-11 07:43:00,59.9,56.0,29.92,North,6,0.0,0.0,87,0.00,,---,0.00,25.00,VWS V14.01,2013-09-11 14:43:00,
2013-09-11 07:48:00,60.1,56.5,29.92,North,6,0.0,0.0,88,0.00,,---,0.00,25.00,VWS V14.01,2013-09-11 14:48:00,
2013-09-11 07:52:00,60.3,56.4,29.92,North,6,0.0,0.0,87,0.00,,---,0.00,25.00,VWS V14.01,2013-09-11 14:52:00,
2013-09-11 07:57:00,60.4,56.5,29.92,North,6,0.0,0.0,87,0.00,,---,0.00,26.00,VWS V14.01,2013-09-11 14:57:00,
2013-09-11 08:00:00,60.4,56.5,29.92,North,6,0.0,0.0,87,0.00,,---,0.00,26.00,VWS V14.01,2013-09-11 15:00:00,
2013-09-11 08:02:00,60.6,56.7,29.93,North,6,0.0,0.0,87,0.00,,---,0.00,33.00,VWS V14.01,2013-09-11 15:02:00,
2013-09-11 08:07:00,60.8,56.9,29.93,North,6,0.0,0.0,87,0.00,,---,0.00,56.00,VWS V14.01,2013-09-11 15:07:00,
2013-09-11 08:12:00,61.0,57.1,29.93,North,6,0.0,0.0,87,0.00,,---,0.00,223.00,VWS V14.01,2013-09-11 15:12:00,
2013-09-11 08:17:00,61.5,57.6,29.93,North,6,0.0,0.0,87,0.00,,---,0.00,241.00,VWS V14.01,2013-09-11 15:17:00,
2013-09-11 08:22:00,62.3,58.4,29.93,North,6,0.0,0.0,87,0.00,,---,0.00,260.00,VWS V14.01,2013-09-11 15:22:00,
2013-09-11 08:27:00,63.2,58.6,29.93,North,6,0.0,0.0,85,0.00,,---,0.00,274.00,VWS V14.01,2013-09-11 15:27:00,
2013-09-11 08:30:00,62.8,58.6,29.93,North,6,0.0,0.0,86,0.00,,---,0.00,269.00,VWS V14.01,2013-09-11 15:30:00,
2013-09-11 08:32:00,64.3,59.0,29.93,North,6,0.0,0.0,83,0.00,,---,0.00,295.00,VWS V14.01,2013-09-11 15:32:00,
2013-09-11 08:37:00,65.3,59.7,29.93,North,6,0.0,0.0,82,0.00,,---,0.00,309.00,VWS V14.01,2013-09-11 15:37:00,
2013-09-11 08:42:00,66.2,59.5,29.93,North,6,0.0,0.0,79,0.00,,---,0.00,325.00,VWS V14.01,2013-09-11 15:42:00,
2013-09-11 08:47:00,66.7,59.6,29.93,North,6,0.0,0.0,78,0.00,,---,0.00,338.00,VWS V14.01,2013-09-11 15:47:00,
2013-09-11 08:52:00,67.1,59.3,29.93,North,6,0.0,0.0,76,0.00,,---,0.00,353.00,VWS V14.01,2013-09-11 15:52:00,
2013-09-11 08:57:00,67.6,59.4,29.93,North,6,0.0,0.0,75,0.00,,---,0.00,369.00,VWS V14.01,2013-09-11 15:57:00,
2013-09-11 09:00:00,67.4,59.6,29.93,North,6,0.0,0.0,76,0.00,,---,0.00,364.00,VWS V14.01,2013-09-11 16:00:00,
2013-09-11 09:02:00,68.2,60.0,29.93,North,6,0.0,0.0,75,0.00,,---,0.00,383.00,VWS V14.01,2013-09-11 16:02:00,
2013-09-11 09:07:00,68.5,59.5,29.93,North,6,0.0,0.0,73,0.00,,---,0.00,397.00,VWS V14.01,2013-09-11 16:07:00,
2013-09-11 09:12:00,68.7,59.7,29.93,North,6,0.0,0.0,73,0.00,,---,0.00,411.00,VWS V14.01,2013-09-11 16:12:00,
2013-09-11 09:17:00,68.9,59.5,29.93,North,6,0.0,0.0,72,0.00,,---,0.00,422.00,VWS V14.01,2013-09-11 16:17:00,
2013-09-11 09:22:00,69.0,59.2,29.93,North,6,0.0,0.0,71,0.00,,---,0.00,432.00,VWS V14.01,2013-09-11 16:22:00,
2013-09-11 09:27:00,69.1,59.3,29.93,North,6,0.0,0.0,71,0.00,,---,0.00,446.00,VWS V14.01,2013-09-11 16:27:00,
2013-09-11 09:30:00,69.1,59.3,29.93,North,6,0.0,0.0,71,0.00,,---,0.00,443.00,VWS V14.01,2013-09-11 16:30:00,
2013-09-11 09:32:00,69.2,59.0,29.93,North,6,0.0,0.0,70,0.00,,---,0.00,459.00,VWS V14.01,2013-09-11 16:32:00,
2013-09-11 09:37:00,69.2,59.0,29.93,North,6,0.0,0.0,70,0.00,,---,0.00,471.00,VWS V14.01,2013-09-11 16:37:00,
2013-09-11 09:42:00,69.2,59.0,29.94,North,6,0.0,0.0,70,0.00,,---,0.00,483.00,VWS V14.01,2013-09-11 16:42:00,
2013-09-11 09:48:00,69.1,58.9,29.94,North,6,0.0,0.0,70,0.00,,---,0.00,492.00,VWS V14.01,2013-09-11 16:48:00,
2013-09-11 09:53:00,69.0,59.2,29.93,North,6,0.0,0.0,71,0.00,,---,0.00,503.00,VWS V14.01,2013-09-11 16:53:00,
2013-09-11 09:58:00,69.0,59.2,29.93,North,6,0.0,0.0,71,0.00,,---,0.00,510.00,VWS V14.01,2013-09-11 16:58:00,
2013-09-11 10:00:00,69.0,58.8,29.93,North,6,0.0,0.0,70,0.00,,---,0.00,504.00,VWS V14.01,2013-09-11 17:00:00,
2013-09-11 10:02:00,69.1,58.9,29.94,North,6,0.0,0.0,70,0.00,,---,0.00,513.00,VWS V14.01,2013-09-11 17:02:00,
2013-09-11 10:07:00,69.1,58.9,29.93,North,6,0.0,0.0,70,0.00,,---,0.00,513.00,VWS V14.01,2013-09-11 17:07:00,
2013-09-11 10:12:00,69.2,59.0,29.94,North,6,0.0,0.0,70,0.00,,---,0.00,522.00,VWS V14.01,2013-09-11 17:12:00,
2013-09-11 10:17:00,69.3,59.1,29.93,North,6,0.0,0.0,70,0.00,,---,0.00,529.00,VWS V14.01,2013-09-11 17:17:00,
2013-09-11 10:22:00,69.4,59.2,29.93,North,6,0.0,0.0,70,0.01,,---,0.01,401.00,VWS V14.01,2013-09-11 17:22:00,
2013-09-11 10:27:00,69.4,59.2,29.93,North,6,0.0,0.0,70,0.01,,---,0.01,56.00,VWS V14.01,2013-09-11 17:27:00,
2013-09-11 10:30:00,69.4,59.2,29.93,North,6,0.0,0.0,70,0.01,,---,0.01,401.00,VWS V14.01,2013-09-11 17:30:00,
2013-09-11 10:32:00,69.4,59.2,29.93,North,6,0.0,0.0,70,0.01,,---,0.01,54.00,VWS V14.01,2013-09-11 17:32:00,
2013-09-11 10:37:00,69.5,59.3,29.93,North,6,0.0,0.0,70,0.01,,---,0.01,54.00,VWS V14.01,2013-09-11 17:37:00,
2013-09-11 10:42:00,69.6,59.4,29.93,North,6,0.0,0.0,70,0.01,,---,0.01,53.00,VWS V14.01,2013-09-11 17:42:00,
2013-09-11 10:47:00,69.7,59.5,29.93,North,6,0.0,0.0,70,0.01,,---,0.01,51.00,VWS V14.01,2013-09-11 17:47:00,
2013-09-11 10:52:00,69.8,59.6,29.93,North,6,0.0,0.0,70,0.01,,---,0.01,51.00,VWS V14.01,2013-09-11 17:52:00,
2013-09-11 10:57:00,69.9,59.7,29.93,North,6,0.0,0.0,70,0.01,,---,0.01,49.00,VWS V14.01,2013-09-11 17:57:00,
2013-09-11 11:00:00,69.9,59.7,29.93,North,6,0.0,0.0,70,0.01,,---,0.01,49.00,VWS V14.01,2013-09-11 18:00:00,
2013-09-11 11:02:00,70.2,60.0,29.93,North,6,0.0,0.0,70,0.01,,---,0.01,47.00,VWS V14.01,2013-09-11 18:02:00,
2013-09-11 11:07:00,70.4,59.8,29.93,North,6,0.0,0.0,69,0.01,,---,0.01,47.00,VWS V14.01,2013-09-11 18:07:00,
2013-09-11 11:12:00,70.6,60.0,29.93,North,6,0.0,0.0,69,0.01,,---,0.01,46.00,VWS V14.01,2013-09-11 18:12:00,
2013-09-11 11:17:00,70.8,59.7,29.93,North,6,0.0,0.0,68,0.01,,---,0.01,44.00,VWS V14.01,2013-09-11 18:17:00,
2013-09-11 11:22:00,71.0,59.9,29.93,North,6,0.0,0.0,68,0.01,,---,0.01,44.00,VWS V14.01,2013-09-11 18:22:00,
2013-09-11 11:27:00,71.1,60.4,29.93,North,6,0.0,0.0,69,0.00,,---,0.01,44.00,VWS V14.01,2013-09-11 18:27:00,
2013-09-11 11:30:00,71.0,59.9,29.93,North,6,0.0,0.0,68,0.01,,---,0.01,44.00,VWS V14.01,2013-09-11 18:30:00,
2013-09-11 11:33:00,71.3,59.8,29.93,North,6,0.0,0.0,67,0.00,,---,0.01,42.00,VWS V14.01,2013-09-11 18:33:00,
2013-09-11 11:38:00,71.5,60.0,29.93,North,6,0.0,0.0,67,0.00,,---,0.01,40.00,VWS V14.01,2013-09-11 18:38:00,
2013-09-11 11:43:00,71.6,60.1,29.93,North,6,0.0,0.0,67,0.00,,---,0.01,40.00,VWS V14.01,2013-09-11 18:43:00,
2013-09-11 11:48:00,71.8,59.8,29.93,North,6,0.0,0.0,66,0.00,,---,0.01,40.00,VWS V14.01,2013-09-11 18:48:00,
2013-09-11 11:53:00,71.9,59.9,29.93,North,6,0.0,0.0,66,0.00,,---,0.01,39.00,VWS V14.01,2013-09-11 18:53:00,
2013-09-11 11:58:00,72.1,59.7,29.93,North,6,0.0,0.0,65,0.00,,---,0.01,39.00,VWS V14.01,2013-09-11 18:58:00,
2013-09-11 12:00:00,72.0,60.0,29.93,North,6,0.0,0.0,66,0.00,,---,0.01,39.00,VWS V14.01,2013-09-11 19:00:00,
2013-09-11 12:03:00,72.2,60.2,29.93,North,6,0.0,0.0,66,0.00,,---,0.01,39.00,VWS V14.01,2013-09-11 19:03:00,
2013-09-11 12:08:00,72.6,60.2,29.93,North,6,0.0,0.0,65,0.00,,---,0.01,37.00,VWS V14.01,2013-09-11 19:08:00,
2013-09-11 12:13:00,72.9,59.6,29.93,North,6,0.0,0.0,63,0.00,,---,0.01,37.00,VWS V14.01,2013-09-11 19:13:00,
2013-09-11 12:18:00,73.2,59.9,29.92,North,6,0.0,0.0,63,0.00,,---,0.01,35.00,VWS V14.01,2013-09-11 19:18:00,
2013-09-11 12:23:00,73.5,60.2,29.92,North,6,0.0,0.0,63,0.00,,---,0.01,35.00,VWS V14.01,2013-09-11 19:23:00,
2013-09-11 12:28:00,73.9,61.0,29.92,North,6,0.0,0.0,64,0.00,,---,0.01,33.00,VWS V14.01,2013-09-11 19:28:00,
2013-09-11 12:30:00,73.7,60.3,29.92,North,6,0.0,0.0,63,0.00,,---,0.01,35.00,VWS V14.01,2013-09-11 19:30:00,
2013-09-11 12:34:00,74.3,60.0,29.92,North,6,0.0,0.0,61,0.00,,---,0.01,33.00,VWS V14.01,2013-09-11 19:34:00,
2013-09-11 12:40:00,74.8,60.9,29.92,North,6,0.0,0.0,62,0.00,,---,0.01,32.00,VWS V14.01,2013-09-11 19:40:00,
2013-09-11 12:45:00,75.2,61.3,29.92,North,6,0.0,0.0,62,0.00,,---,0.01,32.00,VWS V14.01,2013-09-11 19:45:00,
2013-09-11 12:50:00,75.5,60.7,29.92,North,6,0.0,0.0,60,0.00,,---,0.01,32.00,VWS V14.01,2013-09-11 19:50:00,
2013-09-11 12:55:00,75.7,60.4,29.92,North,6,0.0,0.0,59,0.00,,---,0.01,30.00,VWS V14.01,2013-09-11 19:55:00,
2013-09-11 13:00:00,76.0,61.1,29.92,North,6,0.0,0.0,60,0.00,,---,0.01,30.00,VWS V14.01,2013-09-11 20:00:00,
2013-09-11 13:05:00,76.4,61.5,29.92,North,6,0.0,0.0,60,0.00,,---,0.01,30.00,VWS V14.01,2013-09-11 20:05:00,
2013-09-11 13:10:00,76.7,61.3,29.92,North,6,0.0,0.0,59,0.00,,---,0.01,30.00,VWS V14.01,2013-09-11 20:10:00,
2013-09-11 13:15:00,76.9,61.5,29.92,North,6,0.0,0.0,59,0.00,,---,0.01,28.00,VWS V14.01,2013-09-11 20:15:00,
2013-09-11 13:20:00,77.2,61.3,29.91,North,6,0.0,0.0,58,0.00,,---,0.01,28.00,VWS V14.01,2013-09-11 20:20:00,
2013-09-11 13:25:00,77.5,61.6,29.92,North,6,0.0,0.0,58,0.00,,---,0.01,28.00,VWS V14.01,2013-09-11 20:25:00,
2013-09-11 13:30:00,77.8,60.9,29.91,North,6,0.0,0.0,56,0.00,,---,0.01,26.00,VWS V14.01,2013-09-11 20:30:00,
2013-09-11 13:35:00,77.9,61.5,29.91,North,6,0.0,0.0,57,0.00,,---,0.01,26.00,VWS V14.01,2013-09-11 20:35:00,
2013-09-11 13:40:00,78.0,62.0,29.91,North,6,0.0,0.0,58,0.00,,---,0.01,26.00,VWS V14.01,2013-09-11 20:40:00,
2013-09-11 13:45:00,78.1,61.6,29.91,North,6,0.0,0.0,57,0.00,,---,0.01,26.00,VWS V14.01,2013-09-11 20:45:00,
2013-09-11 13:50:00,78.2,62.2,29.91,North,6,0.0,0.0,58,0.00,,---,0.01,26.00,VWS V14.01,2013-09-11 20:50:00,
2013-09-11 13:55:00,78.5,61.0,29.91,North,6,0.0,0.0,55,0.00,,---,0.01,26.00,VWS V14.01,2013-09-11 20:55:00,
2013-09-11 14:00:00,78.7,61.7,29.91,North,6,0.0,0.0,56,0.00,,---,0.01,26.00,VWS V14.01,2013-09-11 21:00:00,
2013-09-11 14:05:00,78.9,61.9,29.91,North,6,0.0,0.0,56,0.00,,---,0.01,25.00,VWS V14.01,2013-09-11 21:05:00,
2013-09-11 14:10:00,79.0,61.0,29.90,North,6,0.0,0.0,54,0.00,,---,0.01,25.00,VWS V14.01,2013-09-11 21:10:00,
2013-09-11 14:15:00,79.1,61.6,29.90,North,6,0.0,0.0,55,0.00,,---,0.01,25.00,VWS V14.01,2013-09-11 21:15:00,
2013-09-11 14:20:00,79.3,61.8,29.90,North,6,0.0,0.0,55,0.00,,---,0.01,25.00,VWS V14.01,2013-09-11 21:20:00,
2013-09-11 14:25:00,79.6,62.0,29.90,North,6,0.0,0.0,55,0.00,,---,0.01,25.00,VWS V14.01,2013-09-11 21:25:00,
2013-09-11 14:30:00,79.7,62.1,29.90,North,6,0.0,0.0,55,0.00,,---,0.01,25.00,VWS V14.01,2013-09-11 21:30:00,
2013-09-11 14:35:00,79.8,61.7,29.90,North,6,0.0,0.0,54,0.00,,---,0.01,25.00,VWS V14.01,2013-09-11 21:35:00,
2013-09-11 14:40:00,80.0,61.9,29.89,North,6,0.0,0.0,54,0.00,,---,0.01,23.00,VWS V14.01,2013-09-11 21:40:00,
2013-09-11 14:45:00,80.3,61.6,29.89,North,6,0.0,0.0,53,0.00,,---,0.01,23.00,VWS V14.01,2013-09-11 21:45:00,
2013-09-11 14:50:00,80.5,61.8,29.89,North,6,0.0,0.0,53,0.00,,---,0.01,23.00,VWS V14.01,2013-09-11 21:50:00,
2013-09-11 14:55:00,80.7,62.0,29.89,North,6,0.0,0.0,53,0.00,,---,0.01,23.00,VWS V14.01,2013-09-11 21:55:00,
2013-09-11 15:00:00,80.9,61.1,29.89,North,6,0.0,0.0,51,0.00,,---,0.01,23.00,VWS V14.01,2013-09-11 22:00:00,
2013-09-11 15:05:00,81.3,62.0,29.89,North,6,0.0,0.0,52,0.00,,---,0.01,23.00,VWS V14.01,2013-09-11 22:05:00,
2013-09-11 15:10:00,81.5,61.7,29.89,North,6,0.0,0.0,51,0.00,,---,0.01,23.00,VWS V14.01,2013-09-11 22:10:00,
2013-09-11 15:15:00,81.7,62.4,29.89,North,6,0.0,0.0,52,0.00,,---,0.01,23.00,VWS V14.01,2013-09-11 22:15:00,
2013-09-11 15:20:00,82.0,61.5,29.89,North,6,0.0,0.0,50,0.00,,---,0.01,23.00,VWS V14.01,2013-09-11 22:20:00,
2013-09-11 15:25:00,82.2,62.3,29.89,North,6,0.0,0.0,51,0.00,,---,0.01,23.00,VWS V14.01,2013-09-11 22:25:00,
2013-09-11 15:30:00,82.4,61.3,29.89,North,6,0.0,0.0,49,0.00,,---,0.01,23.00,VWS V14.01,2013-09-11 22:30:00,
2013-09-11 15:35:00,82.5,61.4,29.89,North,6,0.0,0.0,49,0.00,,---,0.01,23.00,VWS V14.01,2013-09-11 22:35:00,
2013-09-11 15:40:00,82.7,62.2,29.89,North,6,0.0,0.0,50,0.00,,---,0.01,23.00,VWS V14.01,2013-09-11 22:40:00,
2013-09-11 15:45:00,82.7,61.6,29.89,North,6,0.0,0.0,49,0.00,,---,0.01,23.00,VWS V14.01,2013-09-11 22:45:00,
2013-09-11 15:50:00,82.9,62.4,29.89,North,6,0.0,0.0,50,0.00,,---,0.01,23.00,VWS V14.01,2013-09-11 22:50:00,
2013-09-11 15:55:00,83.0,61.9,29.89,North,6,0.0,0.0,49,0.00,,---,0.01,23.00,VWS V14.01,2013-09-11 22:55:00,
2013-09-11 16:00:00,83.0,61.9,29.88,North,6,0.0,0.0,49,0.00,,---,0.01,23.00,VWS V14.01,2013-09-11 23:00:00,
2013-09-11 16:05:00,83.2,62.1,29.88,North,6,0.0,0.0,49,0.00,,---,0.01,23.00,VWS V14.01,2013-09-11 23:05:00,
2013-09-11 16:10:00,83.2,62.1,29.88,North,6,0.0,0.0,49,0.00,,---,0.01,23.00,VWS V14.01,2013-09-11 23:10:00,
2013-09-11 16:15:00,83.3,62.2,29.88,North,6,0.0,0.0,49,0.00,,---,0.01,23.00,VWS V14.01,2013-09-11 23:15:00,
2013-09-11 16:20:00,83.4,62.3,29.88,North,6,0.0,0.0,49,0.00,,---,0.01,23.00,VWS V14.01,2013-09-11 23:20:00,
2013-09-11 16:25:00,83.4,61.7,29.88,North,6,0.0,0.0,48,0.00,,---,0.01,23.00,VWS V14.01,2013-09-11 23:25:00,
2013-09-11 16:30:00,83.6,61.8,29.88,North,6,0.0,0.0,48,0.00,,---,0.01,23.00,VWS V14.01,2013-09-11 23:30:00,
2013-09-11 16:35:00,83.6,62.4,29.88,North,6,0.0,0.0,49,0.00,,---,0.01,23.00,VWS V14.01,2013-09-11 23:35:00,
2013-09-11 16:40:00,83.6,62.4,29.88,North,6,0.0,0.0,49,0.00,,---,0.01,23.00,VWS V14.01,2013-09-11 23:40:00,
2013-09-11 16:45:00,83.7,62.5,29.88,North,6,0.0,0.0,49,0.00,,---,0.01,23.00,VWS V14.01,2013-09-11 23:45:00,
2013-09-11 16:50:00,83.6,61.8,29.88,North,6,0.0,0.0,48,0.00,,---,0.01,23.00,VWS V14.01,2013-09-11 23:50:00,
2013-09-11 16:55:00,83.6,61.8,29.88,North,6,0.0,0.0,48,0.00,,---,0.01,23.00,VWS V14.01,2013-09-11 23:55:00,
2013-09-11 17:00:00,83.7,61.3,29.88,North,6,0.0,0.0,47,0.00,,---,0.01,23.00,VWS V14.01,2013-09-12 00:00:00,
2013-09-11 17:05:00,83.7,61.3,29.88,North,6,0.0,0.0,47,0.00,,---,0.01,23.00,VWS V14.01,2013-09-12 00:05:00,
2013-09-11 17:10:00,83.7,61.3,29.87,North,6,0.0,0.0,47,0.00,,---,0.01,23.00,VWS V14.01,2013-09-12 00:10:00,
2013-09-11 17:15:00,83.7,62.0,29.88,North,6,0.0,0.0,48,0.00,,---,0.01,23.00,VWS V14.01,2013-09-12 00:15:00,
2013-09-11 17:20:00,83.7,61.3,29.87,North,6,0.0,0.0,47,0.00,,---,0.01,23.00,VWS V14.01,2013-09-12 00:20:00,
2013-09-11 17:25:00,83.7,61.3,29.88,North,6,0.0,0.0,47,0.00,,---,0.01,21.00,VWS V14.01,2013-09-12 00:25:00,
2013-09-11 17:30:00,83.6,61.8,29.88,North,6,0.0,0.0,48,0.00,,---,0.01,21.00,VWS V14.01,2013-09-12 00:30:00,
2013-09-11 17:35:00,83.6,61.3,29.87,North,6,0.0,0.0,47,0.00,,---,0.01,21.00,VWS V14.01,2013-09-12 00:35:00,
2013-09-11 17:40:00,83.4,61.1,29.87,North,6,0.0,0.0,47,0.00,,---,0.01,21.00,VWS V14.01,2013-09-12 00:40:00,
2013-09-11 17:45:00,83.3,61.0,29.87,North,6,0.0,0.0,47,0.00,,---,0.01,21.00,VWS V14.01,2013-09-12 00:45:00,
2013-09-11 17:50:00,83.2,61.5,29.87,North,6,0.0,0.0,48,0.00,,---,0.01,21.00,VWS V14.01,2013-09-12 00:50:00,
2013-09-11 17:55:00,83.1,60.8,29.87,North,6,0.0,0.0,47,0.00,,---,0.01,19.00,VWS V14.01,2013-09-12 00:55:00,
2013-09-11 18:00:00,83.0,61.3,29.87,North,6,0.0,0.0,48,0.00,,---,0.01,19.00,VWS V14.01,2013-09-12 01:00:00,
2013-09-11 18:05:00,82.9,61.2,29.87,North,6,0.0,0.0,48,0.00,,---,0.01,19.00,VWS V14.01,2013-09-12 01:05:00,
2013-09-11 18:10:00,82.7,61.0,29.87,North,6,0.0,0.0,48,0.00,,---,0.01,19.00,VWS V14.01,2013-09-12 01:10:00,
2013-09-11 18:15:00,82.5,61.4,29.87,North,6,0.0,0.0,49,0.00,,---,0.01,18.00,VWS V14.01,2013-09-12 01:15:00,
2013-09-11 18:20:00,82.1,61.1,29.87,North,6,0.0,0.0,49,0.00,,---,0.01,18.00,VWS V14.01,2013-09-12 01:20:00,
2013-09-11 18:25:00,81.7,61.3,29.87,North,6,0.0,0.0,50,0.00,,---,0.01,16.00,VWS V14.01,2013-09-12 01:25:00,
2013-09-11 18:30:00,81.3,60.3,29.87,North,6,0.0,0.0,49,0.00,,---,0.01,16.00,VWS V14.01,2013-09-12 01:30:00,
2013-09-11 18:35:00,81.0,60.6,29.87,North,6,0.0,0.0,50,0.00,,---,0.01,14.00,VWS V14.01,2013-09-12 01:35:00,
2013-09-11 18:40:00,80.6,60.8,29.87,North,6,0.0,0.0,51,0.00,,---,0.01,12.00,VWS V14.01,2013-09-12 01:40:00,
2013-09-11 18:45:00,80.1,60.4,29.87,North,6,0.0,0.0,51,0.00,,---,0.01,12.00,VWS V14.01,2013-09-12 01:45:00,
2013-09-11 18:50:00,79.6,60.4,29.86,North,6,0.0,0.0,52,0.00,,---,0.01,11.00,VWS V14.01,2013-09-12 01:50:00,
2013-09-11 18:55:00,79.2,60.1,29.87,North,6,0.0,0.0,52,0.00,,---,0.01,7.00,VWS V14.01,2013-09-12 01:55:00,
2013-09-11 19:00:00,78.7,60.2,29.86,North,6,0.0,0.0,53,0.00,,---,0.01,7.00,VWS V14.01,2013-09-12 02:00:00,
2013-09-11 19:05:00,78.5,60.5,29.87,North,6,0.0,0.0,54,0.00,,---,0.01,5.00,VWS V14.01,2013-09-12 02:05:00,
2013-09-11 19:10:00,78.1,59.6,29.87,North,6,0.0,0.0,53,0.00,,---,0.01,0.00,VWS V14.01,2013-09-12 02:10:00,
2013-09-11 19:15:00,77.7,59.8,29.87,North,6,0.0,0.0,54,0.00,,---,0.01,0.00,VWS V14.01,2013-09-12 02:15:00,
2013-09-11 19:20:00,77.3,59.4,29.87,North,6,0.0,0.0,54,0.00,,---,0.01,0.00,VWS V14.01,2013-09-12 02:20:00,
2013-09-11 19:25:00,76.9,59.0,29.87,North,6,0.0,0.0,54,0.00,,---,0.01,0.00,VWS V14.01,2013-09-12 02:25:00,
2013-09-11 19:30:00,76.5,58.6,29.87,North,6,0.0,0.0,54,0.00,,---,0.01,0.00,VWS V14.01,2013-09-12 02:30:00,
2013-09-11 19:35:00,76.2,58.4,29.87,North,6,0.0,0.0,54,0.00,,---,0.01,0.00,VWS V14.01,2013-09-12 02:35:00,
2013-09-11 19:40:00,75.9,58.6,29.87,North,6,0.0,0.0,55,0.00,,---,0.01,0.00,VWS V14.01,2013-09-12 02:40:00,
2013-09-11 19:45:00,75.6,57.8,29.87,North,6,0.0,0.0,54,0.00,,---,0.01,0.00,VWS V14.01,2013-09-12 02:45:00,
2013-09-11 19:50:00,75.3,58.0,29.87,North,6,0.0,0.0,55,0.00,,---,0.01,0.00,VWS V14.01,2013-09-12 02:50:00,
2013-09-11 19:55:00,75.0,58.3,29.88,North,6,0.0,0.0,56,0.00,,---,0.01,0.00,VWS V14.01,2013-09-12 02:55:00,
2013-09-11 20:00:00,74.8,58.1,29.88,North,6,0.0,0.0,56,0.00,,---,0.01,0.00,VWS V14.01,2013-09-12 03:00:00,
2013-09-11 20:05:00,74.6,57.9,29.88,North,6,0.0,0.0,56,0.00,,---,0.01,0.00,VWS V14.01,2013-09-12 03:05:00,
2013-09-11 20:10:00,74.4,57.7,29.88,North,6,0.0,0.0,56,0.00,,---,0.01,0.00,VWS V14.01,2013-09-12 03:10:00,
2013-09-11 20:15:00,74.2,58.0,29.88,North,6,0.0,0.0,57,0.00,,---,0.01,0.00,VWS V14.01,2013-09-12 03:15:00,
2013-09-11 20:20:00,74.1,57.9,29.88,North,6,0.0,0.0,57,0.00,,---,0.01,0.00,VWS V14.01,2013-09-12 03:20:00,
2013-09-11 20:25:00,74.0,57.8,29.88,North,6,0.0,0.0,57,0.00,,---,0.01,0.00,VWS V14.01,2013-09-12 03:25:00,
2013-09-11 20:30:00,73.8,58.1,29.89,North,6,0.0,0.0,58,0.00,,---,0.01,0.00,VWS V14.01,2013-09-12 03:30:00,
2013-09-11 20:35:00,73.7,58.5,29.89,North,6,0.0,0.0,59,0.00,,---,0.01,0.00,VWS V14.01,2013-09-12 03:35:00,
2013-09-11 20:40:00,73.5,57.8,29.89,North,6,0.0,0.0,58,0.00,,---,0.01,0.00,VWS V14.01,2013-09-12 03:40:00,
2013-09-11 20:45:00,73.3,57.7,29.89,North,6,0.0,0.0,58,0.00,,---,0.01,0.00,VWS V14.01,2013-09-12 03:45:00,
2013-09-11 20:50:00,73.2,58.0,29.89,North,6,0.0,0.0,59,0.00,,---,0.01,0.00,VWS V14.01,2013-09-12 03:50:00,
2013-09-11 20:55:00,73.0,57.8,29.89,North,6,0.0,0.0,59,0.00,,---,0.01,0.00,VWS V14.01,2013-09-12 03:55:00,
2013-09-11 21:00:00,72.9,58.2,29.89,North,6,0.0,0.0,60,0.00,,---,0.01,0.00,VWS V14.01,2013-09-12 04:00:00,
2013-09-11 21:01:00,72.9,58.2,29.89,North,6,0.0,0.0,60,0.00,,---,0.01,0.00,VWS V14.01,2013-09-12 04:01:00,
2013-09-11 21:06:00,72.7,58.0,29.89,North,6,0.0,0.0,60,0.00,,---,0.01,0.00,VWS V14.01,2013-09-12 04:06:00,
2013-09-11 21:11:00,72.6,57.9,29.89,North,6,0.0,0.0,60,0.00,,---,0.01,0.00,VWS V14.01,2013-09-12 04:11:00,
2013-09-11 21:16:00,72.5,57.8,29.89,North,6,0.0,0.0,60,0.00,,---,0.01,0.00,VWS V14.01,2013-09-12 04:16:00,
2013-09-11 21:21:00,72.4,58.2,29.90,North,6,0.0,0.0,61,0.00,,---,0.01,0.00,VWS V14.01,2013-09-12 04:21:00,
2013-09-11 21:26:00,72.3,58.1,29.90,North,6,0.0,0.0,61,0.00,,---,0.01,0.00,VWS V14.01,2013-09-12 04:26:00,
2013-09-11 21:30:00,72.3,57.7,29.90,North,6,0.0,0.0,60,0.00,,---,0.01,0.00,VWS V14.01,2013-09-12 04:30:00,
2013-09-11 21:31:00,72.2,58.0,29.90,North,6,0.0,0.0,61,0.00,,---,0.01,0.00,VWS V14.01,2013-09-12 04:31:00,
2013-09-11 21:36:00,72.1,57.9,29.90,North,6,0.0,0.0,61,0.00,,---,0.01,0.00,VWS V14.01,2013-09-12 04:36:00,
2013-09-11 21:41:00,72.0,57.8,29.90,North,6,0.0,0.0,61,0.00,,---,0.01,0.00,VWS V14.01,2013-09-12 04:41:00,
2013-09-11 21:46:00,71.8,57.6,29.90,North,6,0.0,0.0,61,0.00,,---,0.01,0.00,VWS V14.01,2013-09-12 04:46:00,
2013-09-11 21:51:00,71.6,57.5,29.90,North,6,0.0,0.0,61,0.00,,---,0.01,0.00,VWS V14.01,2013-09-12 04:51:00,
2013-09-11 21:56:00,71.3,57.6,29.90,North,6,0.0,0.0,62,0.00,,---,0.01,0.00,VWS V14.01,2013-09-12 04:56:00,
2013-09-11 22:00:00,71.3,57.6,29.90,North,6,0.0,0.0,62,0.00,,---,0.01,0.00,VWS V14.01,2013-09-12 05:00:00,
2013-09-11 22:01:00,71.1,57.4,29.90,North,6,0.0,0.0,62,0.00,,---,0.01,0.00,VWS V14.01,2013-09-12 05:01:00,
2013-09-11 22:06:00,70.9,57.7,29.90,North,6,0.0,0.0,63,0.00,,---,0.01,0.00,VWS V14.01,2013-09-12 05:06:00,
2013-09-11 22:11:00,70.6,57.8,29.90,North,6,0.0,0.0,64,0.00,,---,0.01,0.00,VWS V14.01,2013-09-12 05:11:00,
2013-09-11 22:16:00,70.4,57.7,29.90,North,6,0.0,0.0,64,0.00,,---,0.01,0.00,VWS V14.01,2013-09-12 05:16:00,
2013-09-11 22:21:00,70.0,57.3,29.90,North,6,0.0,0.0,64,0.00,,---,0.01,0.00,VWS V14.01,2013-09-12 05:21:00,
2013-09-11 22:26:00,69.7,57.4,29.90,North,6,0.0,0.0,65,0.00,,---,0.01,0.00,VWS V14.01,2013-09-12 05:26:00,
2013-09-11 22:30:00,69.8,57.5,29.90,North,6,0.0,0.0,65,0.00,,---,0.01,0.00,VWS V14.01,2013-09-12 05:30:00,
2013-09-11 22:31:00,69.4,56.7,29.90,North,6,0.0,0.0,64,0.00,,---,0.01,0.00,VWS V14.01,2013-09-12 05:31:00,
2013-09-11 22:36:00,69.3,57.0,29.90,North,6,0.0,0.0,65,0.00,,---,0.01,0.00,VWS V14.01,2013-09-12 05:36:00,
2013-09-11 22:41:00,69.1,56.8,29.90,North,6,0.0,0.0,65,0.00,,---,0.01,0.00,VWS V14.01,2013-09-12 05:41:00,
2013-09-11 22:46:00,69.0,56.8,29.91,North,6,0.0,0.0,65,0.00,,---,0.01,0.00,VWS V14.01,2013-09-12 05:46:00,
2013-09-11 22:51:00,68.9,57.1,29.91,North,6,0.0,0.0,66,0.00,,---,0.01,0.00,VWS V14.01,2013-09-12 05:51:00,
2013-09-11 22:56:00,68.8,57.0,29.91,North,6,0.0,0.0,66,0.00,,---,0.01,0.00,VWS V14.01,2013-09-12 05:56:00,
2013-09-11 23:00:00,68.8,57.0,29.91,North,6,0.0,0.0,66,0.00,,---,0.01,0.00,VWS V14.01,2013-09-12 06:00:00,
2013-09-11 23:01:00,68.6,56.8,29.90,North,6,0.0,0.0,66,0.00,,---,0.01,0.00,VWS V14.01,2013-09-12 06:01:00,
2013-09-11 23:06:00,68.5,56.7,29.91,North,6,0.0,0.0,66,0.00,,---,0.01,0.00,VWS V14.01,2013-09-12 06:06:00,
2013-09-11 23:11:00,68.4,56.6,29.91,North,6,0.0,0.0,66,0.00,,---,0.01,0.00,VWS V14.01,2013-09-12 06:11:00,
2013-09-11 23:16:00,68.4,56.6,29.92,North,6,0.0,0.0,66,0.00,,---,0.01,0.00,VWS V14.01,2013-09-12 06:16:00,
2013-09-11 23:21:00,68.3,56.5,29.91,North,6,0.0,0.0,66,0.00,,---,0.01,0.00,VWS V14.01,2013-09-12 06:21:00,
2013-09-11 23:26:00,68.2,56.4,29.91,North,6,0.0,0.0,66,0.00,,---,0.01,0.00,VWS V14.01,2013-09-12 06:26:00,
2013-09-11 23:30:00,68.2,56.4,29.91,North,6,0.0,0.0,66,0.00,,---,0.01,0.00,VWS V14.01,2013-09-12 06:30:00,
2013-09-11 23:31:00,68.1,56.7,29.91,North,6,0.0,0.0,67,0.00,,---,0.01,0.00,VWS V14.01,2013-09-12 06:31:00,
2013-09-11 23:36:00,68.1,57.2,29.91,North,6,0.0,0.0,68,0.00,,---,0.01,0.00,VWS V14.01,2013-09-12 06:36:00,
2013-09-11 23:41:00,68.1,57.2,29.91,North,6,0.0,0.0,68,0.00,,---,0.01,0.00,VWS V14.01,2013-09-12 06:41:00,
2013-09-11 23:46:00,68.1,57.2,29.91,North,6,0.0,0.0,68,0.00,,---,0.01,0.00,VWS V14.01,2013-09-12 06:46:00,
2013-09-11 23:51:00,67.9,57.0,29.91,North,6,0.0,0.0,68,0.00,,---,0.01,0.00,VWS V14.01,2013-09-12 06:51:00,
2013-09-11 23:56:00,67.7,57.2,29.91,North,6,0.0,0.0,69,0.00,,---,0.00,0.00,VWS V14.01,2013-09-12 06:56:00,